Youngstown, OH

7:13 AM EDT on September 25, 2017 (GMT -0400)
Youngstown-Warren Regional

Weather History for KYNG - November, 2011

Change the Weather History Date:

Wednesday, November 23, 2011

  Actual Average Record
Temperature  
Mean Temperature 46 °F 39 °F  
Max Temperature 58 °F 46 °F 74 °F (1931)
Min Temperature 34 °F 32 °F 4 °F (1971)
Degree Days  
Heating Degree Days 19 26  
Month to date heating degree days 426 512  
Since 1 July heating degree days 978 1133  
Cooling Degree Days 0 0  
Month to date cooling degree days 0 0  
Year to date cooling degree days 731 544  
Moisture  
Dew Point 39 °F    
Average Humidity 82    
Maximum Humidity 93    
Minimum Humidity 70    
Precipitation  
Precipitation 0.15 in 0.11 in 1.24 in (1961)
Month to date precipitation 2.73 2.43  
Year to date precipitation 48.16 35.17  
Snow  
Snow 0.00 in 0.20 in - ()
Month to date snowfall 1.7 2.1  
Since 1 July snowfall 1.7 2.9  
Since 1 September snowfall 1.7 2.9  
Snow Depth 0.00 in    
Sea Level Pressure  
Sea Level Pressure 29.90 in    
Wind  
Wind Speed 12 mph (WNW)    
Max Wind Speed 26 mph    
Max Gust Speed 35 mph    
Visibility 9 miles    
Events Rain    
T = Trace of Precipitation, MM = Missing Value Source: NWS Daily Summary

Daily Weather History Graph

Daily Weather History Graph

Search for Another Location

Airport or City:

Trip Planner

Search our weather history database for the weather conditions in past years. The results will help you decide how hot, cold, wet, or windy it might be!

Date:

Astronomy

Nov. 23, 2011 Rise Set
Actual Time 7:19 AM EST 4:57 PM EST
Civil Twilight 6:49 AM EST 5:28 PM EST
Nautical Twilight 6:15 AM EST 6:01 PM EST
Astronomical Twilight 5:42 AM EST 6:34 PM EST
Moon 5:21 AM EST (11/23) 3:38 PM EST (11/23)
Length of Visible Light 10h 38m
Length of Day
9h 38m
Waning Crescent, 4% of the Moon is Illuminated
Nov 23
Waning Crescent
Nov 25
New
Dec 2
First Quarter
Dec 10
Full
Dec 17
Last Quarter

Hourly Weather History & Observations

Time (EST) Temp. Windchill Dew Point Humidity Pressure Visibility Wind Dir Wind Speed Gust Speed Precip Events Conditions
12:51 AM 57.9 °F - 55.0 °F 90% 29.57 in 10.0 mi South 10.4 mph - N/A   Overcast
1:18 AM 57.2 °F - 55.4 °F 94% 29.55 in 10.0 mi South 9.2 mph - 0.00 in Rain Light Rain
1:51 AM 57.0 °F - 55.0 °F 93% 29.57 in 10.0 mi SW 9.2 mph - 0.04 in   Overcast
2:51 AM 54.0 °F - 48.9 °F 83% 29.59 in 10.0 mi WSW 19.6 mph 25.3 mph N/A   Overcast
3:51 AM 48.9 °F - 45.0 °F 86% 29.60 in 10.0 mi WSW 16.1 mph - N/A   Overcast
4:01 AM 48.2 °F - 44.6 °F 87% 29.59 in 10.0 mi WSW 17.3 mph 24.2 mph N/A   Overcast
4:13 AM 48.2 °F - 44.6 °F 87% 29.59 in 5.0 mi WSW 15.0 mph - 0.00 in   Light Drizzle
4:51 AM 46.0 °F 41.4 °F 45.0 °F 96% 29.62 in 2.5 mi WSW 9.2 mph - 0.01 in Rain Light Rain
5:18 AM 42.8 °F 34.3 °F 42.8 °F 100% 29.64 in 2.5 mi NNW 19.6 mph 25.3 mph 0.02 in   Overcast
5:51 AM 42.1 °F 33.3 °F 39.9 °F 92% 29.69 in 2.5 mi NNW 19.6 mph 25.3 mph 0.03 in   Light Drizzle
6:30 AM 41.0 °F 31.4 °F 37.4 °F 87% 29.72 in 6.0 mi NNW 21.9 mph 27.6 mph 0.02 in Rain Light Rain
6:51 AM 39.0 °F 29.3 °F 37.0 °F 93% 29.78 in 6.0 mi NNW 19.6 mph 31.1 mph 0.05 in Rain Light Rain
7:51 AM 39.0 °F 29.6 °F 37.0 °F 93% 29.84 in 7.0 mi NNW 18.4 mph 31.1 mph 0.02 in Rain Light Rain
8:51 AM 39.9 °F 30.2 °F 37.0 °F 89% 29.91 in 10.0 mi NNW 20.7 mph 32.2 mph 0.00 in   Overcast
9:51 AM 39.9 °F 31.4 °F 37.9 °F 93% 29.95 in 10.0 mi NNW 16.1 mph 29.9 mph N/A   Overcast
10:51 AM 41.0 °F 32.8 °F 37.9 °F 89% 29.99 in 10.0 mi NNW 16.1 mph - N/A   Overcast
11:51 AM 41.0 °F 32.8 °F 37.9 °F 89% 30.00 in 10.0 mi NNW 16.1 mph 25.3 mph N/A   Overcast
12:51 PM 42.1 °F 33.3 °F 37.9 °F 85% 30.02 in 10.0 mi NNW 19.6 mph 27.6 mph N/A   Overcast
1:23 PM 42.8 °F 34.5 °F 37.4 °F 81% 30.02 in 10.0 mi NNW 18.4 mph 25.3 mph N/A   Overcast
1:51 PM 43.0 °F 35.7 °F 37.0 °F 80% 30.04 in 10.0 mi NW 15.0 mph 27.6 mph N/A   Overcast
2:13 PM 42.8 °F 35.8 °F 35.6 °F 76% 30.04 in 10.0 mi NW 13.8 mph - N/A   Mostly Cloudy
2:51 PM 44.6 °F 40.2 °F 37.4 °F 76% 30.05 in 10.0 mi NNW 8.1 mph - N/A   Mostly Cloudy
3:51 PM 45.0 °F 38.9 °F 35.1 °F 68% 30.10 in 10.0 mi NNW 12.7 mph - N/A   Scattered Clouds
4:51 PM 42.1 °F 37.1 °F 33.1 °F 70% 30.12 in 10.0 mi NW 8.1 mph - N/A   Partly Cloudy
5:51 PM 41.0 °F 38.0 °F 32.0 °F 70% 30.14 in 10.0 mi West 4.6 mph - N/A   Partly Cloudy
6:51 PM 39.0 °F 34.0 °F 33.1 °F 79% 30.16 in 10.0 mi West 6.9 mph - N/A   Partly Cloudy
7:51 PM 37.9 °F 32.7 °F 34.0 °F 86% 30.19 in 10.0 mi West 6.9 mph - N/A   Partly Cloudy
8:51 PM 37.0 °F 32.4 °F 34.0 °F 89% 30.21 in 10.0 mi West 5.8 mph - N/A   Clear
9:51 PM 36.0 °F 30.3 °F 34.0 °F 93% 30.22 in 10.0 mi West 6.9 mph - N/A   Clear
10:51 PM 34.0 °F 29.8 °F 30.9 °F 89% 30.22 in 10.0 mi WSW 4.6 mph - N/A   Clear
11:51 PM 34.0 °F 29.8 °F 32.0 °F 92% 30.22 in 9.0 mi SSW 4.6 mph - N/A   Clear